Probability
13 32 35 35 39 42 48 48 45 48 45 45 42 39 42 42 39 35 39 35 23 23 23 26 19 16 13 19 19 13 10 10 13 16 16 16 10 6 10 6 0 0 10
19 32 35 35 39 39 42 42 42 42 35 39 42 39 39 35 32 29 32 35 32 26 23 16 16 13 13 19 16 16 16 6 13 10 16 13 10 10 13 10 10 0 10
32 32 35 35 39 39 39 45 42 42 42 42 39 32 32 29 29 26 23 26 23 26 10 13 16 13 10 6 10 10 6 13 10 6 6 0 0 3 10 10 10 6 10
26 32 32 39 39 39 35 35 39 39 39 39 32 29 29 26 23 23 23 19 16 16 13 10 6 10 10 6 6 6 6 6 10 3 0 0 0 0 6 6 10 10 6
19 29 32 35 32 35 35 35 32 35 35 32 29 29 26 26 23 23 23 23 16 19 13 13 10 3 6 6 10 3 3 3 0 0 0 0 0 3 13 10 13 10 10
19 19 26 29 32 32 32 32 29 26 26 26 29 26 26 23 19 19 19 19 16 16 13 6 10 3 3 3 3 3 6 6 0 0 0 0 3 3 3 13 19 16 10
19 19 19 23 23 23 23 23 23 23 23 23 26 26 26 19 16 16 16 19 16 13 6 3 6 6 6 3 3 3 3 3 0 0 0 0 0 3 6 10 19 16 13
16 16 19 23 23 23 23 23 19 19 19 23 23 23 23 19 19 16 16 19 19 13 6 6 3 3 3 6 3 3 3 0 0 0 0 0 0 6 6 6 6 10 16
16 16 16 16 16 19 19 19 19 19 19 19 19 19 16 16 16 10 10 13 13 10 10 6 6 3 3 3 3 3 3 0 0 0 0 0 0 3 6 10 3 3 3
13 16 16 16 16 13 16 19 19 19 19 19 16 13 10 10 13 10 10 10 10 10 10 10 6 6 3 3 3 3 3 0 0 0 0 0 0 3 13 13 10 6 10
13 10 10 13 10 6 10 16 13 13 13 13 10 6 6 3 3 3 3 6 6 6 10 10 6 6 0 0 3 3 3 0 0 0 0 0 0 6 6 13 19 16 6
10 10 10 6 6 3 6 6 6 6 10 6 6 3 3 0 0 0 0 0 3 3 3 3 6 0 0 0 0 0 0 0 0 0 0 0 0 6 6 6 13 13 10
6 6 6 6 6 3 3 6 6 0 0 3 3 3 3 0 0 0 0 0 0 0 0 0 0 0 0 0 0 0 0 0 0 0 0 0 3 3 6 6 10 13 10
3 3 3 3 3 3 6 3 3 0 0 0 0 3 3 0 0 0 0 0 0 0 0 0 0 0 0 0 0 0 0 0 0 0 0 0 0 3 3 3 10 13 13
3 3 3 3 3 3 3 3 3 0 0 0 0 0 3 0 0 0 0 0 0 0 0 0 0 0 0 0 0 0 0 0 0 0 0 0 0 0 3 3 6 10 10
3 3 0 3 3 3 3 3 3 0 0 0 0 0 0 0 0 0 0 0 0 0 0 0 0 0 0 0 0 0 0 0 0 0 0 0 0 0 3 3 3 6 6
6 3 0 3 3 3 0 0 0 0 0 0 0 0 0 0 0 0 0 0 0 0 0 0 0 0 0 0 0 0 0 0 0 0 0 0 0 0 0 0 3 3 3
6 3 3 3 3 3 0 0 0 0 0 0 0 0 0 0 0 0 0 0 0 0 0 0 0 0 0 0 0 0 0 0 0 0 0 0 0 0 0 0 0 3 3
0 3 0 0 3 3 0 0 0 0 0 0 0 0 0 0 0 0 0 0 0 0 0 0 0 0 0 0 0 0 0 0 0 0 0 0 0 0 0 0 0 0 0
0 0 3 0 0 0 0 0 0 0 0 0 0 0 0 0 0 0 0 0 0 0 0 0 0 0 0 0 0 0 0 0 0 0 0 0 0 0 0 0 0 0 0
0 0 3 0 0 0 0 0 0 0 0 0 0 0 0 0 0 0 0 0 0 0 0 0 0 0 0 0 0 0 0 0 0 0 0 0 0 0 0 0 0 0 0
0 0 0 0 0 0 0 0 0 0 0 0 0 0 0 0 0 0 0 0 0 0 0 0 0 0 0 0 0 0 0 0 0 0 0 0 0 0 0 0 0 0 0
0 0 0 0 0 0 0 0 0 0 0 0 0 0 0 0 0 0 0 0 0 0 0 0 0 0 0 0 0 0 0 0 0 0 0 0 0 0 0 0 0 0 0
0 0 0 0 0 0 0 0 0 0 0 0 0 0 0 0 0 0 0 0 0 0 0 0 0 0 0 0 0 0 0 0 0 0 0 0 0 0 0 0 0 0 0
0 0 0 0 0 0 0 0 0 0 0 0 0 0 0 0 0 0 0 0 0 0 0 0 0 0 0 0 0 0 0 0 0 0 0 0 0 0 0 0 0 0 0
0 0 0 0 0 0 0 0 0 0 0 0 0 0 0 0 0 0 0 0 0 0 0 0 0 0 0 0 0 0 0 0 0 0 0 0 0 0 0 0 0 0 0
Height
5862 5863 5864 5865 5866 5867 5867 5868 5869 5869 5870 5871 5871 5872 5872 5872 5873 5873 5873 5873 5873 5873 5873 5872 5872 5872 5872 5871 5871 5870 5870 5869 5869 5868 5867 5867 5866 5865 5865 5864 5864 5863 5862
5859 5860 5861 5862 5863 5864 5865 5866 5867 5867 5868 5868 5869 5870 5870 5870 5871 5871 5871 5871 5871 5871 5870 5870 5870 5870 5870 5869 5869 5868 5868 5867 5866 5866 5865 5864 5864 5863 5862 5862 5861 5860 5859
5856 5857 5858 5859 5860 5862 5862 5863 5864 5865 5865 5866 5867 5867 5868 5868 5868 5868 5868 5868 5868 5868 5868 5868 5868 5867 5867 5867 5866 5866 5865 5865 5864 5863 5862 5862 5861 5860 5859 5859 5858 5857 5856
5853 5854 5855 5856 5857 5858 5859 5860 5861 5862 5862 5863 5864 5864 5865 5865 5866 5866 5866 5866 5866 5866 5865 5865 5865 5864 5864 5864 5863 5863 5862 5862 5861 5860 5859 5859 5858 5857 5856 5855 5855 5854 5853
5850 5851 5852 5853 5854 5855 5856 5857 5858 5859 5859 5860 5861 5862 5862 5862 5863 5863 5863 5863 5863 5862 5862 5862 5862 5861 5861 5861 5860 5859 5859 5858 5857 5856 5856 5855 5854 5853 5852 5851 5851 5850 5849
5846 5847 5848 5849 5850 5852 5853 5854 5855 5855 5856 5857 5858 5858 5859 5859 5859 5859 5859 5859 5859 5859 5859 5858 5858 5858 5857 5857 5856 5856 5855 5854 5853 5852 5852 5851 5850 5849 5848 5847 5846 5845 5845
5842 5843 5844 5845 5847 5848 5849 5850 5851 5852 5853 5853 5854 5855 5855 5855 5856 5856 5856 5856 5856 5855 5855 5855 5854 5854 5853 5853 5852 5851 5851 5850 5849 5848 5847 5846 5845 5844 5843 5842 5841 5840 5839
5837 5839 5840 5841 5843 5844 5845 5846 5847 5848 5849 5849 5850 5851 5851 5851 5852 5852 5852 5852 5852 5851 5851 5850 5850 5849 5849 5848 5847 5847 5846 5845 5844 5843 5842 5841 5840 5839 5838 5837 5836 5835 5834
5832 5834 5836 5837 5838 5839 5841 5842 5842 5843 5844 5845 5846 5846 5847 5847 5847 5847 5847 5847 5847 5847 5847 5846 5845 5845 5844 5843 5842 5841 5840 5839 5838 5837 5836 5835 5834 5833 5832 5830 5829 5828 5827
5828 5829 5831 5832 5834 5835 5836 5837 5838 5839 5840 5840 5841 5842 5842 5843 5843 5843 5843 5843 5842 5842 5842 5841 5840 5840 5839 5838 5837 5836 5835 5834 5833 5832 5830 5829 5828 5827 5825 5824 5823 5821 5820
5823 5824 5826 5828 5829 5830 5831 5833 5833 5834 5835 5836 5836 5837 5837 5837 5838 5838 5837 5837 5837 5837 5836 5836 5835 5834 5833 5832 5831 5830 5829 5828 5827 5826 5824 5823 5822 5820 5818 5817 5816 5814 5813
5818 5819 5821 5823 5824 5825 5827 5828 5829 5829 5830 5831 5831 5832 5832 5832 5832 5832 5832 5832 5832 5831 5831 5830 5830 5829 5828 5827 5826 5824 5823 5822 5820 5819 5818 5816 5815 5813 5811 5810 5808 5807 5806
5812 5814 5816 5817 5819 5820 5821 5822 5823 5824 5825 5825 5826 5826 5827 5827 5827 5827 5827 5826 5826 5826 5825 5825 5824 5823 5822 5821 5820 5818 5817 5815 5814 5812 5811 5809 5807 5805 5803 5802 5800 5799 5797
5806 5808 5810 5812 5813 5814 5816 5817 5818 5818 5819 5820 5820 5820 5821 5821 5821 5821 5821 5821 5821 5820 5820 5819 5818 5817 5816 5815 5813 5812 5810 5808 5807 5805 5803 5801 5799 5797 5795 5793 5791 5790 5788
5800 5802 5804 5805 5807 5808 5810 5811 5812 5812 5813 5814 5814 5815 5815 5815 5815 5815 5815 5815 5814 5814 5813 5813 5812 5811 5809 5808 5806 5805 5803 5801 5799 5797 5795 5793 5791 5788 5786 5784 5782 5780 5778
5794 5796 5798 5799 5800 5802 5803 5804 5805 5806 5807 5808 5808 5809 5809 5809 5809 5809 5809 5808 5808 5808 5807 5806 5805 5804 5802 5801 5799 5798 5796 5794 5792 5789 5787 5785 5782 5779 5777 5774 5772 5770 5768
5787 5789 5791 5792 5794 5795 5797 5798 5799 5800 5801 5801 5802 5802 5802 5802 5802 5802 5802 5802 5801 5800 5800 5799 5798 5796 5795 5793 5792 5790 5788 5785 5783 5781 5778 5775 5773 5770 5767 5764 5762 5759 5757
5780 5782 5784 5786 5788 5789 5790 5792 5793 5793 5794 5795 5795 5795 5796 5795 5795 5795 5795 5794 5794 5793 5792 5791 5790 5789 5787 5785 5784 5781 5779 5777 5774 5771 5768 5765 5762 5759 5756 5753 5750 5747 5745
5773 5775 5777 5779 5781 5782 5783 5785 5786 5786 5787 5788 5788 5788 5788 5788 5788 5788 5788 5787 5786 5785 5784 5783 5782 5780 5779 5777 5775 5773 5770 5767 5764 5761 5758 5755 5751 5748 5745 5741 5738 5735 5732
5766 5768 5770 5772 5773 5775 5776 5777 5779 5779 5780 5780 5781 5781 5781 5781 5780 5780 5780 5779 5778 5777 5776 5775 5773 5771 5769 5767 5766 5763 5761 5758 5754 5751 5748 5744 5741 5737 5733 5729 5726 5722 5719
5758 5760 5762 5764 5766 5768 5769 5770 5771 5772 5772 5773 5773 5773 5773 5773 5773 5772 5772 5771 5770 5769 5767 5766 5764 5762 5759 5757 5756 5754 5751 5748 5745 5741 5737 5733 5729 5725 5721 5716 5713 5709 5705
5751 5753 5755 5757 5758 5760 5762 5763 5763 5764 5765 5765 5765 5765 5765 5765 5765 5764 5763 5762 5761 5760 5758 5756 5754 5752 5750 5747 5744 5742 5741 5740 5735 5731 5727 5722 5718 5713 5708 5704 5699 5695 5691
5743 5745 5747 5749 5751 5752 5754 5755 5755 5756 5757 5757 5757 5757 5757 5757 5756 5755 5754 5753 5752 5751 5749 5747 5744 5742 5740 5737 5733 5730 5728 5726 5725 5722 5716 5711 5706 5701 5695 5690 5686 5681 5677
5734 5736 5738 5740 5742 5744 5745 5746 5747 5748 5749 5750 5749 5749 5749 5748 5748 5747 5745 5744 5743 5741 5739 5737 5734 5732 5729 5726 5723 5719 5715 5712 5709 5708 5706 5700 5694 5688 5682 5677 5672 5667 5662
5725 5728 5730 5732 5734 5735 5737 5738 5739 5740 5741 5741 5741 5741 5740 5740 5739 5738 5737 5735 5734 5732 5729 5727 5724 5721 5718 5715 5711 5708 5704 5700 5695 5692 5690 5688 5682 5676 5669 5664 5658 5653 5647
5716 5719 5721 5723 5725 5726 5728 5729 5730 5731 5732 5732 5732 5732 5732 5731 5730 5729 5727 5726 5724 5721 5719 5716 5713 5710 5706 5703 5699 5695 5691 5687 5683 5678 5675 5672 5669 5664 5658 5651 5645 5639 5633
Wind_Speed
16 16 15 15 15 14 14 14 13 13 12 12 11 11 11 11 12 12 12 12 11 11 11 11 11 11 11 11 11 12 12 12 13 13 14 14 14 15 15 16 16 17 17
17 17 17 16 16 16 15 15 15 15 14 14 14 14 14 14 14 14 13 13 13 13 13 13 13 13 13 13 13 13 13 14 14 15 15 15 16 16 16 17 18 18 19
17 17 18 17 17 17 17 17 16 16 16 16 16 16 16 16 16 16 15 15 15 15 15 15 15 15 15 15 15 15 16 16 16 17 17 17 17 18 18 18 18 19 19
18 18 18 18 18 18 18 18 18 18 18 18 18 18 18 18 17 17 17 17 17 17 17 17 17 17 17 18 18 18 18 18 19 19 19 19 19 19 20 20 20 20 20
20 19 19 19 19 19 19 19 19 19 19 19 19 19 19 19 19 19 19 18 19 19 19 19 20 20 20 20 20 20 20 21 21 21 21 22 22 22 22 22 23 23 23
21 21 21 20 20 20 20 20 20 20 20 20 20 20 20 20 20 20 20 20 20 20 21 21 21 21 22 22 22 22 22 23 23 23 24 24 24 25 25 25 25 26 26
23 23 22 22 22 22 21 21 21 21 21 21 21 21 21 21 22 22 22 22 22 22 22 22 22 23 23 23 24 24 24 24 25 25 26 26 27 27 28 28 28 29 29
25 24 24 23 23 23 23 23 23 23 23 23 23 22 22 22 23 23 23 23 23 23 24 24 24 25 25 25 25 26 26 27 27 27 28 28 28 29 30 30 30 31 31
25 25 24 24 24 24 24 24 24 24 24 24 23 23 24 24 24 24 25 25 25 25 25 25 26 26 26 27 27 27 27 28 28 28 29 29 30 30 31 32 32 32 32
26 26 25 25 25 25 24 24 25 25 25 25 25 25 25 25 26 26 26 26 26 27 27 26 27 27 27 28 28 29 29 29 29 30 30 31 31 32 33 33 33 33 34
27 27 26 26 26 25 25 25 25 25 25 26 26 26 26 26 27 27 27 27 28 28 28 27 27 27 28 28 29 29 29 30 30 31 31 32 33 33 34 34 34 35 35
29 28 27 27 27 27 26 26 26 26 26 26 26 27 27 27 28 28 28 28 28 28 28 28 28 28 29 29 30 30 30 31 31 32 33 33 34 35 36 36 36 37 37
30 29 29 28 28 28 28 28 28 28 28 27 27 27 27 27 27 28 28 29 29 29 29 29 29 30 30 30 30 31 31 31 32 33 34 35 36 37 37 38 38 39 39
30 30 30 29 29 29 29 29 29 29 29 28 28 27 27 28 28 28 29 29 29 29 30 30 30 30 31 31 32 32 33 33 34 35 35 36 37 38 38 39 39 40 41
30 30 30 30 30 30 30 30 29 29 29 28 28 28 28 28 29 29 29 30 30 30 31 31 31 32 32 32 33 34 34 35 36 36 37 37 38 39 40 40 41 42 43
31 31 31 31 31 30 30 30 29 29 29 29 29 30 29 30 30 31 31 31 31 31 32 33 33 33 33 34 34 35 35 36 37 38 39 39 40 41 42 42 43 43 44
32 32 31 31 31 30 30 30 30 30 30 31 31 31 31 31 32 32 32 32 33 33 34 34 34 34 35 35 36 36 37 38 39 40 41 41 42 43 44 44 45 46 47
33 32 32 32 31 31 31 30 31 31 31 31 31 32 32 32 33 33 33 33 34 35 35 35 35 35 36 37 37 38 39 40 41 42 42 43 44 45 46 47 48 49 50
33 33 33 32 32 32 31 31 31 32 32 32 32 33 33 33 33 34 34 34 35 36 36 37 37 37 38 39 39 40 41 42 42 43 44 44 45 46 47 48 49 50 51
34 33 33 33 32 32 32 32 32 32 32 33 33 34 34 34 34 34 35 35 36 37 37 38 38 39 40 40 41 41 42 42 43 44 45 46 47 48 49 50 51 51 52
34 34 34 33 33 33 32 32 32 33 33 33 34 34 34 34 35 35 35 36 37 37 38 39 39 40 41 42 42 42 43 43 44 45 47 48 49 50 51 52 52 53 53
35 35 35 34 34 33 32 33 33 33 33 33 34 34 35 35 35 35 36 37 38 38 39 40 41 41 42 43 43 44 44 44 46 47 48 49 50 51 52 53 54 55 55
36 35 35 35 34 34 34 33 34 34 34 34 34 34 35 35 36 36 37 37 38 39 40 41 42 43 43 44 45 46 47 47 47 47 48 49 51 52 53 54 55 56 56
36 36 36 36 35 35 35 35 34 34 34 34 34 34 35 36 36 37 37 38 39 40 41 42 43 44 45 45 46 48 49 50 50 49 49 50 52 52 53 54 55 56 57
36 36 36 36 36 36 36 36 35 35 35 35 35 35 36 36 37 38 38 39 41 42 43 44 45 46 46 47 49 50 51 51 52 52 51 51 52 52 53 54 55 56 57
36 36 36 36 36 36 36 37 36 36 36 36 36 36 36 37 38 39 40 41 42 43 44 45 46 47 48 49 50 51 52 53 53 54 54 53 52 52 53 55 56 57 59
Wind_Direction
244 245 247 248 248 250 251 252 253 255 256 258 260 261 261 262 266 268 268 269 271 273 273 272 274 274 275 275 274 274 274 274 273 273 275 276 277 277 277 277 277 277 278
245 246 247 248 249 249 250 252 252 253 254 255 257 260 263 264 266 268 269 269 270 271 272 273 274 274 274 275 275 276 275 275 276 276 276 276 277 278 279 278 278 277 277
244 245 246 247 247 248 250 252 253 252 253 254 256 258 261 264 266 267 269 270 270 270 271 273 274 274 275 276 277 277 276 275 275 276 277 277 277 277 277 277 278 279 278
244 245 246 247 248 249 250 252 253 253 253 254 256 258 260 262 264 266 267 268 268 269 270 271 272 273 274 275 277 278 278 277 277 276 277 277 277 278 278 278 278 279 279
244 245 247 248 249 249 250 251 252 252 253 254 255 258 260 262 263 264 265 266 267 269 271 272 272 274 275 275 276 276 277 277 277 277 277 277 278 278 279 279 278 278 278
245 246 247 249 250 251 251 252 252 252 252 253 255 258 260 262 263 264 265 266 267 269 271 272 273 274 275 276 277 277 277 277 277 277 277 278 278 278 279 280 279 278 278
246 247 248 250 251 251 252 252 252 253 253 255 256 258 260 262 263 264 265 266 268 270 271 273 274 275 276 276 277 277 277 278 278 278 278 278 279 279 279 279 279 278 277
247 248 249 250 251 252 252 253 254 254 255 256 258 259 261 262 263 265 266 268 269 271 272 274 275 276 276 277 277 277 278 278 279 279 279 279 279 279 279 279 278 278 278
247 248 249 251 252 253 254 255 255 256 257 258 259 260 261 262 264 265 267 268 270 271 273 274 274 275 276 277 277 278 279 279 280 280 280 279 279 279 279 279 278 278 278
247 248 249 251 252 254 255 256 256 256 257 258 260 261 262 263 264 266 267 268 270 271 273 274 274 276 277 277 278 279 279 279 279 279 279 280 280 280 279 279 278 278 278
246 248 250 251 253 254 255 256 257 257 258 260 261 262 262 263 265 266 267 268 270 271 272 274 275 276 278 278 279 279 280 280 280 280 280 280 280 280 280 279 278 278 278
246 248 249 251 253 254 255 256 257 259 260 261 262 263 264 264 265 266 268 269 270 271 272 274 275 277 278 279 280 281 281 281 281 281 281 281 281 280 279 279 278 278 277
246 248 249 251 252 254 255 256 258 260 261 262 263 264 264 265 266 267 268 268 270 271 272 274 276 277 279 280 281 282 282 282 282 282 282 282 282 282 281 280 279 279 278
246 248 249 251 252 254 255 257 258 260 261 262 263 263 264 265 267 268 269 270 270 271 273 275 276 278 279 280 281 282 283 283 283 284 284 284 284 284 283 282 281 280 279
246 248 249 251 253 254 256 257 258 259 259 261 262 263 264 266 267 269 270 271 271 272 274 275 277 279 279 280 281 282 283 284 284 284 285 285 285 285 283 282 282 281 281
247 248 249 251 252 254 255 255 257 258 259 260 262 264 265 267 268 269 270 271 271 273 275 276 278 279 280 281 282 283 283 284 285 285 286 286 286 285 284 283 283 283 282
247 248 248 250 251 253 254 256 257 258 260 261 264 266 267 268 269 269 270 270 271 273 275 277 278 279 280 282 283 283 284 285 285 286 286 286 286 286 284 284 283 283 283
247 248 249 250 251 252 254 256 257 259 260 263 265 266 268 269 269 269 270 271 273 274 276 278 279 280 281 282 283 284 285 286 286 287 287 287 287 286 285 285 284 283 283
247 248 249 250 251 252 254 256 258 260 262 263 265 266 267 268 269 270 271 272 274 276 277 278 279 280 281 282 283 284 285 287 287 288 288 287 287 287 287 286 285 284 283
247 248 249 250 251 253 255 258 259 261 262 263 265 267 268 268 270 271 272 274 275 276 278 279 281 281 282 282 283 285 286 287 288 288 288 288 289 289 288 288 287 286 284
247 248 249 250 252 254 256 258 260 261 262 264 265 267 268 269 270 273 274 275 276 277 279 280 282 283 283 284 284 285 287 288 289 290 290 290 290 290 290 289 288 287 286
248 249 249 250 252 254 255 257 259 261 263 264 266 267 268 269 272 274 275 275 276 278 280 281 283 284 285 286 286 286 286 287 288 289 289 290 290 290 290 289 289 288 287
248 249 250 250 252 254 256 257 259 261 263 265 266 268 269 271 273 275 275 276 277 279 281 282 284 284 285 286 288 289 289 289 288 289 289 290 290 290 290 290 289 288 288
247 248 249 250 252 254 255 257 259 261 263 265 267 268 270 272 274 275 276 277 279 281 282 283 284 285 286 287 288 289 290 291 291 290 290 291 291 291 291 291 290 289 289
247 248 249 250 251 253 254 256 258 260 262 265 267 269 271 273 274 275 277 279 280 282 283 284 285 286 287 288 289 290 291 292 292 292 292 292 292 292 292 292 291 291 290
247 248 249 250 251 252 254 256 258 260 263 265 267 269 271 273 274 275 278 280 282 283 284 285 286 287 287 288 289 290 291 292 292 293 293 293 292 292 292 293 293 292 291